Puerto Banus, Marbella

>

This is an optional block (switch it off / on) in the settings - file ($SITE['banners'] = false;)

You can display ads, any other important text or photo’s using text / html or PHP code.

You can place one or more at the top and or bottom and it can all be different for content / size .



Meteosat more information blitzortung!


Radar lluvias  rain snow radar


Visita nuestra red de sitios de meteo:

Documentation for the template used

MeteoibericaRed estaciones Meteorologicas

MeteoclimaticRed estaciones Meteorologicas



Sin Advertencias climatologicas .En este momento tenemos Nivel Verde.    No hay Alarmas

Pagina Historial Weather Underground texto

Diario Resumen Diciembre 31, 2017 Unidades:  Métrico    impérial   Tanto
« Anterior Dia
Siguiente Dia »
Diario Semana Mensual Anual Personalizada
  Maxima: Minima: Media:
Temperatura: -17.8 °C -11.4 °C -9.3 °C
Punto de rocío: -17.8 °C -13.2 °C -12.1 °C
Humedad: Humidity % 54 % 72 %
Velocidad del Viento: 0 km/h 0 km/h 23.5 km/h
Ráfagas de viento: 0 km/h - -
Viento:- - West
Pression baro: 0 hPa 34669.3 hPa -
Précipitaciones: 0 mm    
Historical Graphs
 
 
Datos de tabla para Diciembre 31, 2017
Tiempo Temperatura Punto de rocío Pression baro Viento Velocidad del Viento Ráfagas de viento Humedad Las precipitaciones Rate ( Hora )
-17.8 °C -17.8 °C 0 hPa Calm     Humidity % 0 mm
00:03 -10.6 °C -12.1 °C 34726.8 hPa North 15 km/h 15 km/h 83 % 0 mm
00:04 -10.6 °C -12.1 °C 34726.8 hPa North 17.9 km/h 17.9 km/h 83 % 0 mm
00:09 -10.5 °C -12.2 °C 34726.8 hPa North 23.8 km/h 23.8 km/h 82 % 0 mm
00:11 -10.5 °C -12.2 °C 34726.8 hPa North 20.9 km/h 20.9 km/h 82 % 0 mm
00:15 -10.4 °C -12.1 °C 34726.8 hPa North 17.9 km/h 17.9 km/h 82 % 0 mm
00:16 -10.4 °C -12.1 °C 34726.8 hPa North 20.9 km/h 20.9 km/h 82 % 0 mm
00:21 -10.5 °C -12.2 °C 34726.8 hPa North 20.9 km/h 20.9 km/h 82 % 0 mm
00:22 -10.5 °C -12.2 °C 34726.8 hPa North 20.9 km/h 20.9 km/h 82 % 0 mm
00:26 -10.5 °C -12.2 °C 34726.8 hPa North 20.9 km/h 20.9 km/h 82 % 0 mm
00:28 -10.5 °C -12.2 °C 34726.8 hPa NNW 20.9 km/h 20.9 km/h 82 % 0 mm
00:33 -10.6 °C -12.2 °C 34726.8 hPa North 17.9 km/h 17.9 km/h 82 % 0 mm
00:34 -10.6 °C -12.2 °C 34726.8 hPa North 17.9 km/h 17.9 km/h 82 % 0 mm
00:39 -10.6 °C -12.2 °C 34726.8 hPa North 15 km/h 15 km/h 82 % 0 mm
00:44 -10.5 °C -12.3 °C 34726.8 hPa North 17.9 km/h 17.9 km/h 81 % 0 mm
00:48 -10.5 °C -12.3 °C 34726.8 hPa North 18.2 km/h 18.2 km/h 81 % 0 mm
00:53 -10.5 °C -12.3 °C 34726.8 hPa North 18.2 km/h 18.2 km/h 81 % 0 mm
00:54 -10.5 °C -12.3 °C 34726.8 hPa NNW 17.9 km/h 17.9 km/h 81 % 0 mm
00:59 -10.5 °C -12.3 °C 34726.8 hPa NNW 15.6 km/h 15.6 km/h 81 % 0 mm
01:00 -10.5 °C -12.3 °C 34726.8 hPa NNW 15.6 km/h 15.6 km/h 81 % 0 mm
01:01 -10.5 °C -12.3 °C 34726.8 hPa North 17.9 km/h 17.9 km/h 81 % 0 mm
01:06 -10.5 °C -12.3 °C 34716.7 hPa North 17.9 km/h 17.9 km/h 81 % 0 mm
01:11 -10.5 °C -12.3 °C 34726.8 hPa NNW 15 km/h 15 km/h 81 % 0 mm
01:12 -10.5 °C -12.3 °C 34726.8 hPa NNW 15 km/h 15 km/h 81 % 0 mm
01:13 -10.5 °C -12.3 °C 34726.8 hPa NNW 15.6 km/h 15.6 km/h 81 % 0 mm
01:17 -10.4 °C -12.2 °C 34726.8 hPa North 9 km/h 9 km/h 81 % 0 mm
01:22 -10.4 °C -12.3 °C 34716.7 hPa North 15 km/h 15 km/h 80 % 0 mm
01:24 -10.4 °C -12.3 °C 34716.7 hPa North 15.6 km/h 15.6 km/h 80 % 0 mm
01:25 -10.4 °C -12.3 °C 34716.7 hPa North 12.9 km/h 15.6 km/h 80 % 0 mm
01:30 -10.5 °C -12.4 °C 34716.7 hPa NNW 12.9 km/h 12.9 km/h 80 % 0 mm
01:31 -10.6 °C -12.4 °C 34716.7 hPa North 15 km/h 15 km/h 80 % 0 mm
01:36 -10.6 °C -12.4 °C 34716.7 hPa NNW 15 km/h 15 km/h 81 % 0 mm
01:40 -10.7 °C -12.4 °C 34726.8 hPa North 15.6 km/h 15.6 km/h 81 % 0 mm
01:43 -10.7 °C -12.4 °C 34726.8 hPa NNW 15 km/h 15 km/h 81 % 0 mm
01:45 -10.7 °C -12.4 °C 34726.8 hPa NNW 15 km/h 15 km/h 81 % 0 mm
01:49 -10.7 °C -12.4 °C 34716.7 hPa NNW 15 km/h 15 km/h 81 % 0 mm
01:51 -10.7 °C -12.4 °C 34716.7 hPa North 11.9 km/h 11.9 km/h 81 % 0 mm
01:54 -10.7 °C -12.4 °C 34716.7 hPa NNW 17.9 km/h 17.9 km/h 81 % 0 mm
01:56 -10.7 °C -12.4 °C 34716.7 hPa North 20.9 km/h 20.9 km/h 81 % 0 mm
02:01 -10.7 °C -12.4 °C 34716.7 hPa North 15.6 km/h 15.6 km/h 81 % 0 mm
02:02 -10.7 °C -12.4 °C 34716.7 hPa North 15.6 km/h 15.6 km/h 81 % 0 mm
02:07 -10.8 °C -12.6 °C 34716.7 hPa North 20.9 km/h 20.9 km/h 81 % 0 mm
02:08 -10.8 °C -12.6 °C 34716.7 hPa North 20.9 km/h 20.9 km/h 81 % 0 mm
02:13 -10.8 °C -12.5 °C 34716.7 hPa NNW 11.9 km/h 11.9 km/h 82 % 0 mm
02:16 -10.8 °C -12.4 °C 34716.7 hPa NNW 15.6 km/h 15.6 km/h 82 % 0 mm
02:20 -10.8 °C -12.4 °C 34716.7 hPa North 15 km/h 15 km/h 82 % 0 mm
02:23 -10.8 °C -12.5 °C 34716.7 hPa North 15.6 km/h 15.6 km/h 82 % 0 mm
02:26 -10.9 °C -12.6 °C 34716.7 hPa North 17.9 km/h 17.9 km/h 82 % 0 mm
02:28 -10.9 °C -12.6 °C 34716.7 hPa North 15 km/h 15 km/h 82 % 0 mm
02:31 -10.9 °C -12.6 °C 34716.7 hPa North 17.9 km/h 17.9 km/h 82 % 0 mm
02:36 -10.9 °C -12.6 °C 34716.7 hPa North 15 km/h 15 km/h 82 % 0 mm
02:41 -10.9 °C -12.6 °C 34716.7 hPa North 10.3 km/h 10.3 km/h 82 % 0 mm
02:42 -10.9 °C -12.6 °C 34716.7 hPa North 10.3 km/h 10.3 km/h 82 % 0 mm
02:44 -10.9 °C -12.6 °C 34716.7 hPa North 11.9 km/h 11.9 km/h 82 % 0 mm
02:47 -10.9 °C -12.6 °C 34716.7 hPa North 12.9 km/h 12.9 km/h 82 % 0 mm
02:52 -10.9 °C -12.6 °C 34716.7 hPa North 11.9 km/h 11.9 km/h 82 % 0 mm
02:53 -10.9 °C -12.6 °C 34716.7 hPa North 15 km/h 15 km/h 82 % 0 mm
02:54 -10.9 °C -12.6 °C 34716.7 hPa North 15 km/h 15 km/h 82 % 0 mm
02:59 -10.9 °C -12.6 °C 34716.7 hPa NNW 15 km/h 15 km/h 82 % 0 mm
03:04 -10.9 °C -12.6 °C 34716.7 hPa NNW 15 km/h 15 km/h 82 % 0 mm
03:05 -10.9 °C -12.6 °C 34716.7 hPa NNW 17.9 km/h 17.9 km/h 82 % 0 mm
03:10 -10.9 °C -12.6 °C 34716.7 hPa NW 11.9 km/h 11.9 km/h 82 % 0 mm
03:11 -10.9 °C -12.6 °C 34716.7 hPa NW 11.9 km/h 11.9 km/h 82 % 0 mm
03:15 -10.9 °C -12.6 °C 34716.7 hPa NW 11.9 km/h 11.9 km/h 82 % 0 mm
03:17 -10.9 °C -12.6 °C 34716.7 hPa NNW 11.9 km/h 11.9 km/h 82 % 0 mm
03:22 -10.8 °C -12.4 °C 34716.7 hPa NNW 9 km/h 9 km/h 82 % 0 mm
03:24 -10.8 °C -12.4 °C 34716.7 hPa NNW 6 km/h   82 % 0 mm
03:26 -10.8 °C -12.4 °C 34716.7 hPa Calm     82 % 0 mm
03:29 -10.8 °C -12.5 °C 34716.7 hPa NNW 10.3 km/h 10.3 km/h 82 % 0 mm
03:34 -10.9 °C -12.6 °C 34703.1 hPa North 11.9 km/h 11.9 km/h 82 % 0 mm
03:35 -10.9 °C -12.6 °C 34716.7 hPa North 11.9 km/h 11.9 km/h 82 % 0 mm
03:40 -10.9 °C -12.6 °C 34703.1 hPa North 15.6 km/h 18.2 km/h 82 % 0 mm
03:41 -10.9 °C -12.6 °C 34703.1 hPa North 17.9 km/h 17.9 km/h 82 % 0 mm
03:46 -11 °C -12.7 °C 34703.1 hPa NNW 15 km/h 15 km/h 82 % 0 mm
03:51 -11.1 °C -12.7 °C 34703.1 hPa NNW 17.9 km/h 17.9 km/h 82 % 0 mm
03:56 -11.1 °C -12.7 °C 34703.1 hPa NNW 11.9 km/h 11.9 km/h 83 % 0 mm
03:57 -11.1 °C -12.7 °C 34693 hPa North 17.9 km/h 17.9 km/h 83 % 0 mm
03:58 -11.1 °C -12.7 °C 34693 hPa North 17.9 km/h 17.9 km/h 83 % 0 mm
04:03 -11.2 °C -12.7 °C 34693 hPa North 17.9 km/h 17.9 km/h 83 % 0 mm
04:07 -11.1 °C -12.7 °C 34693 hPa North 17.9 km/h 17.9 km/h 83 % 0 mm
04:08 -11.1 °C -12.7 °C 34693 hPa North 15 km/h 15 km/h 83 % 0 mm
04:14 -11.1 °C -12.6 °C 34693 hPa North 11.9 km/h 11.9 km/h 83 % 0 mm
04:21 -11.1 °C -12.6 °C 34693 hPa NNW 15 km/h 15 km/h 83 % 0 mm
04:24 -11.1 °C -12.6 °C 34693 hPa NNW 15 km/h 15 km/h 83 % 0 mm
04:29 -11 °C -12.6 °C 34693 hPa NNW 15 km/h 15 km/h 83 % 0 mm
04:34 -11 °C -12.6 °C 34693 hPa Calm     83 % 0 mm
04:36 -11 °C -12.6 °C 34693 hPa Calm   0.3 km/h 83 % 0 mm
04:37 -11 °C -12.6 °C 34693 hPa NNW 3.1 km/h   83 % 0 mm
04:42 -11 °C -12.6 °C 34693 hPa NNW 6 km/h 6 km/h 83 % 0 mm
04:43 -11 °C -12.6 °C 34693 hPa NNW 6 km/h 6 km/h 83 % 0 mm
04:44 -11 °C -12.7 °C 34693 hPa NNW 6 km/h 6 km/h 82 % 0 mm
04:49 -11 °C -12.7 °C 34693 hPa NNW 9 km/h 9 km/h 82 % 0 mm
04:50 -11 °C -12.7 °C 34693 hPa NNW 9 km/h 9 km/h 82 % 0 mm
04:54 -11 °C -12.7 °C 34682.8 hPa NNW 17.9 km/h 17.9 km/h 82 % 0 mm
04:59 -11 °C -12.7 °C 34682.8 hPa NNW 15 km/h 15 km/h 82 % 0 mm
05:01 -11 °C -12.7 °C 34682.8 hPa North 15.6 km/h 15.6 km/h 82 % 0 mm
05:05 -11 °C -12.7 °C 34682.8 hPa NNW 11.9 km/h 11.9 km/h 82 % 0 mm
05:06 -11 °C -12.7 °C 34682.8 hPa North 11.9 km/h 11.9 km/h 82 % 0 mm
05:11 -11 °C -12.7 °C 34682.8 hPa North 11.9 km/h 11.9 km/h 82 % 0 mm
05:14 -11 °C -12.7 °C 34669.3 hPa NNW 11.9 km/h 11.9 km/h 82 % 0 mm
05:16 -11 °C -12.7 °C 34682.8 hPa North 11.9 km/h 11.9 km/h 82 % 0 mm
05:20 -11.1 °C -12.7 °C 34682.8 hPa North 15 km/h 15 km/h 82 % 0 mm
05:25 -11.2 °C -12.8 °C 34669.3 hPa North 17.9 km/h 17.9 km/h 82 % 0 mm
05:28 -11.2 °C -12.8 °C 34682.8 hPa North 18.2 km/h 18.2 km/h 82 % 0 mm
05:33 -11.2 °C -12.9 °C 34682.8 hPa North 17.9 km/h 17.9 km/h 82 % 0 mm
05:34 -11.2 °C -12.9 °C 34682.8 hPa North 17.9 km/h 17.9 km/h 82 % 0 mm
05:39 -11.2 °C -12.9 °C 34682.8 hPa North 17.9 km/h 17.9 km/h 82 % 0 mm
05:42 -11.2 °C -12.9 °C 34682.8 hPa NNW 15.6 km/h 15.6 km/h 82 % 0 mm
05:45 -11.2 °C -12.8 °C 34682.8 hPa North 15 km/h 15 km/h 83 % 0 mm
05:50 -11.2 °C -12.9 °C 34682.8 hPa North 11.9 km/h 11.9 km/h 82 % 0 mm
05:51 -11.2 °C -12.9 °C 34682.8 hPa North 11.9 km/h 11.9 km/h 82 % 0 mm
05:56 -11.2 °C -12.7 °C 34682.8 hPa North 9 km/h 9 km/h 83 % 0 mm
05:57 -11.2 °C -12.7 °C 34682.8 hPa North 10.3 km/h 10.3 km/h 83 % 0 mm
06:02 -11.2 °C -12.7 °C 34682.8 hPa North 10.3 km/h 10.3 km/h 83 % 0 mm
06:06 -11.2 °C -12.7 °C 34682.8 hPa North 15 km/h 15 km/h 83 % 0 mm
06:11 -11.2 °C -12.7 °C 34682.8 hPa North 15 km/h 15 km/h 83 % 0 mm
06:12 -11.2 °C -12.7 °C 34682.8 hPa North 11.9 km/h 11.9 km/h 83 % 0 mm
06:13 -11.2 °C -12.7 °C 34682.8 hPa North 12.9 km/h 12.9 km/h 83 % 0 mm
06:18 -11.3 °C -12.9 °C 34682.8 hPa North 11.9 km/h 11.9 km/h 82 % 0 mm
06:19 -11.3 °C -12.9 °C 34682.8 hPa North 15 km/h 15 km/h 82 % 0 mm
06:23 -11.3 °C -12.9 °C 34682.8 hPa North 15 km/h 15 km/h 83 % 0 mm
06:25 -11.4 °C -12.9 °C 34682.8 hPa North 15 km/h 15 km/h 83 % 0 mm
06:28 -11.4 °C -12.9 °C 34682.8 hPa North 15 km/h 15 km/h 83 % 0 mm
06:33 -11.4 °C -12.9 °C 34682.8 hPa North 18.2 km/h 18.2 km/h 83 % 0 mm
06:37 -11.4 °C -12.9 °C 34682.8 hPa NNW 20.9 km/h 20.9 km/h 83 % 0 mm
06:38 -11.4 °C -12.9 °C 34682.8 hPa NNW 20.9 km/h 20.9 km/h 83 % 0 mm
06:43 -11.4 °C -12.9 °C 34682.8 hPa NNW 9 km/h 9 km/h 83 % 0 mm
06:44 -11.4 °C -12.9 °C 34682.8 hPa NNW 10.3 km/h 10.3 km/h 83 % 0 mm
06:49 -11.4 °C -12.9 °C 34682.8 hPa North 10.3 km/h 10.3 km/h 83 % 0 mm
06:54 -11.4 °C -12.9 °C 34682.8 hPa NNW 9 km/h 9 km/h 83 % 0 mm
06:55 -11.4 °C -12.9 °C 34682.8 hPa North 9 km/h 9 km/h 83 % 0 mm
07:00 -11.4 °C -12.9 °C 34682.8 hPa NNW 11.9 km/h 12.4 km/h 83 % 0 mm
07:01 -11.4 °C -12.9 °C 34682.8 hPa North 15 km/h 15 km/h 83 % 0 mm
07:06 -11.4 °C -12.9 °C 34693 hPa NNW 9 km/h 9 km/h 83 % 0 mm
07:08 -11.4 °C -12.9 °C 34693 hPa North 12.9 km/h 12.9 km/h 83 % 0 mm
07:11 -11.3 °C -12.9 °C 34693 hPa North 15.6 km/h 15.6 km/h 83 % 0 mm
07:14 -11.3 °C -12.9 °C 34693 hPa North 20.9 km/h 20.9 km/h 83 % 0 mm
07:17 -11.4 °C -13 °C 34682.8 hPa North 20.9 km/h 20.9 km/h 82 % 0 mm
07:21 -11.4 °C -13 °C 34693 hPa North 17.9 km/h 17.9 km/h 82 % 0 mm
07:26 -11.4 °C -13.1 °C 34693 hPa North 18.2 km/h 18.2 km/h 82 % 0 mm
07:28 -11.4 °C -13.1 °C 34693 hPa North 17.9 km/h 17.9 km/h 82 % 0 mm
07:33 -11.4 °C -13.1 °C 34693 hPa North 17.9 km/h 17.9 km/h 82 % 0 mm
07:35 -11.4 °C -13.1 °C 34693 hPa North 17.9 km/h 17.9 km/h 82 % 0 mm
07:37 -11.4 °C -13 °C 34693 hPa NNW 15 km/h 15 km/h 82 % 0 mm
07:40 -11.3 °C -13 °C 34693 hPa NNW 15 km/h 15 km/h 82 % 0 mm
07:45 -11.3 °C -13 °C 34693 hPa North 11.9 km/h 11.9 km/h 81 % 0 mm
07:46 -11.2 °C -13 °C 34693 hPa NNW 12.9 km/h 12.9 km/h 81 % 0 mm
07:48 -11.2 °C -12.9 °C 34693 hPa North 15 km/h 15 km/h 81 % 0 mm
07:52 -11.2 °C -13 °C 34693 hPa North 15.6 km/h 15.6 km/h 80 % 0 mm
07:56 -11.2 °C -13.1 °C 34693 hPa NNW 20.9 km/h 20.9 km/h 80 % 0 mm
07:57 -11.3 °C -13.1 °C 34693 hPa NNW 17.9 km/h 17.9 km/h 80 % 0 mm
08:02 -11.3 °C -13.1 °C 34693 hPa North 23.8 km/h 23.8 km/h 80 % 0 mm
08:07 -11.3 °C -13.1 °C 34703.1 hPa NNW 15 km/h 15 km/h 80 % 0 mm
08:12 -11.3 °C -13.1 °C 34693 hPa NNW 9 km/h 9 km/h 80 % 0 mm
08:13 -11.2 °C -13.1 °C 34693 hPa NNW 10.3 km/h 10.3 km/h 80 % 0 mm
08:16 -11.2 °C -13.1 °C 34693 hPa North 12.9 km/h 12.9 km/h 80 % 0 mm
08:21 -11.2 °C -13.1 °C 34693 hPa NNW 10.3 km/h 10.3 km/h 80 % 0 mm
08:23 -11.2 °C -12.9 °C 34693 hPa North 10.3 km/h 10.3 km/h 81 % 0 mm
08:28 -11.2 °C -12.9 °C 34703.1 hPa NNW 9 km/h 9 km/h 81 % 0 mm
08:29 -11.2 °C -12.9 °C 34703.1 hPa NNW 9 km/h 9 km/h 81 % 0 mm
08:34 -11.1 °C -12.9 °C 34703.1 hPa North 11.9 km/h 11.9 km/h 81 % 0 mm
08:36 -11.1 °C -12.8 °C 34703.1 hPa North 11.9 km/h 11.9 km/h 81 % 0 mm
08:40 -11.1 °C -12.9 °C 34703.1 hPa North 15 km/h 15 km/h 80 % 0 mm
08:43 -11.1 °C -12.9 °C 34703.1 hPa NNW 15 km/h 15 km/h 80 % 0 mm
08:45 -11.1 °C -12.9 °C 34703.1 hPa NNW 11.9 km/h 11.9 km/h 80 % 0 mm
08:51 -11.1 °C -12.9 °C 34703.1 hPa NNW 9 km/h 9 km/h 80 % 0 mm
08:52 -11.1 °C -12.9 °C 34703.1 hPa NNW 9 km/h 9 km/h 80 % 0 mm
08:57 -10.9 °C -12.8 °C 34703.1 hPa NW 17.9 km/h 17.9 km/h 80 % 0 mm
09:02 -10.9 °C -12.8 °C 34716.7 hPa NW 9 km/h 9 km/h 79 % 0 mm
09:03 -10.8 °C -12.8 °C 34716.7 hPa NW 11.9 km/h 11.9 km/h 79 % 0 mm
09:08 -10.8 °C -12.8 °C 34716.7 hPa NNW 10.3 km/h 10.3 km/h 79 % 0 mm
09:13 -10.9 °C -12.9 °C 34716.7 hPa North 15.6 km/h 15.6 km/h 78 % 0 mm
09:14 -10.9 °C -13.1 °C 34716.7 hPa North 15.6 km/h 15.6 km/h 77 % 0 mm
09:19 -11 °C -13.2 °C 34716.7 hPa NNW 15 km/h 15 km/h 77 % 0 mm
09:24 -11.1 °C -13.2 °C 34716.7 hPa NNW 15.6 km/h 15.6 km/h 77 % 0 mm
09:28 -11.1 °C -13.1 °C 34716.7 hPa NNW 11.9 km/h 11.9 km/h 78 % 0 mm
09:30 -11 °C -13.1 °C 34716.7 hPa North 12.9 km/h 12.9 km/h 78 % 0 mm
09:35 -10.9 °C -13 °C 34716.7 hPa North 10.3 km/h 10.3 km/h 78 % 0 mm
09:36 -10.9 °C -13 °C 34716.7 hPa North 12.9 km/h 12.9 km/h 78 % 0 mm
09:40 -10.9 °C -13.1 °C 34716.7 hPa North 12.9 km/h 18.2 km/h 77 % 0 mm
09:41 -10.9 °C -13.1 °C 34716.7 hPa North 15 km/h 15 km/h 77 % 0 mm
09:44 -10.9 °C -13.1 °C 34716.7 hPa North 15 km/h 15 km/h 77 % 0 mm
09:47 -10.9 °C -13.1 °C 34716.7 hPa North 11.9 km/h 11.9 km/h 77 % 0 mm
09:51 -10.9 °C -13.1 °C 34716.7 hPa North 15 km/h 15 km/h 77 % 0 mm
09:52 -10.9 °C -13.1 °C 34726.8 hPa North 15 km/h 15 km/h 77 % 0 mm
09:57 -10.9 °C -13.1 °C 34726.8 hPa North 9 km/h 9 km/h 77 % 0 mm
09:58 -10.9 °C -13.1 °C 34726.8 hPa North 9 km/h 9 km/h 77 % 0 mm
10:03 -10.8 °C -13 °C 34726.8 hPa North 9 km/h 9 km/h 77 % 0 mm
10:04 -10.8 °C -12.9 °C 34726.8 hPa North 9 km/h 9 km/h 77 % 0 mm
10:09 -10.7 °C -13 °C 34726.8 hPa North 11.9 km/h 11.9 km/h 76 % 0 mm
10:10 -10.7 °C -12.9 °C 34726.8 hPa North 12.9 km/h 12.9 km/h 76 % 0 mm
10:14 -10.7 °C -12.9 °C 34726.8 hPa North 15 km/h 15 km/h 76 % 0 mm
10:19 -10.7 °C -13 °C 34726.8 hPa NNE 12.9 km/h 12.9 km/h 76 % 0 mm
10:23 -10.7 °C -12.9 °C 34740.4 hPa NNE 17.9 km/h 17.9 km/h 76 % 0 mm
10:27 -10.5 °C -12.7 °C 34740.4 hPa NNE 17.9 km/h 17.9 km/h 77 % 0 mm
10:32 -10.4 °C -12.7 °C 34740.4 hPa North 20.9 km/h 20.9 km/h 76 % 0 mm
10:34 -10.4 °C -12.7 °C 34740.4 hPa NNE 15 km/h 15 km/h 76 % 0 mm
10:39 -10.3 °C -12.6 °C 34740.4 hPa North 11.9 km/h 11.9 km/h 76 % 0 mm
10:40 -10.3 °C -12.6 °C 34740.4 hPa North 12.9 km/h 12.9 km/h 76 % 0 mm
10:41 -10.3 °C -12.6 °C 34740.4 hPa North 11.9 km/h 11.9 km/h 76 % 0 mm
10:46 -10.2 °C -12.6 °C 34740.4 hPa NNE 17.9 km/h 17.9 km/h 76 % 0 mm
10:48 -10.2 °C -12.6 °C 34740.4 hPa NNE 11.9 km/h 11.9 km/h 76 % 0 mm
10:51 -10.2 °C -12.5 °C 34740.4 hPa North 9 km/h 9 km/h 76 % 0 mm
10:55 -10.1 °C -12.4 °C 34750.5 hPa NNW 15 km/h 15 km/h 76 % 0 mm
10:57 -10.1 °C -12.4 °C 34750.5 hPa NNW 15 km/h 15 km/h 76 % 0 mm
11:02 -10.1 °C -12.3 °C 34740.4 hPa North 17.9 km/h 17.9 km/h 76 % 0 mm
11:07 -9.9 °C -12.2 °C 34750.5 hPa North 6 km/h 6 km/h 76 % 0 mm
11:08 -9.9 °C -12.2 °C 34750.5 hPa North 9 km/h 9 km/h 76 % 0 mm
11:13 -9.8 °C -12.1 °C 34750.5 hPa North 9 km/h 9 km/h 76 % 0 mm
11:14 -9.8 °C -12.1 °C 34750.5 hPa North 9 km/h 9 km/h 76 % 0 mm
11:19 -9.7 °C -12.2 °C 34750.5 hPa North 11.9 km/h 11.9 km/h 74 % 0 mm
11:20 -9.7 °C -12.2 °C 34750.5 hPa North 11.9 km/h 11.9 km/h 74 % 0 mm
11:25 -9.6 °C -12.2 °C 34750.5 hPa North 9 km/h 9 km/h 73 % 0 mm
11:26 -9.6 °C -12.2 °C 34750.5 hPa North 9 km/h 9 km/h 73 % 0 mm
11:27 -9.6 °C -12.2 °C 34750.5 hPa NNE 9 km/h 9 km/h 73 % 0 mm
11:32 -9.4 °C -12.1 °C 34740.4 hPa NE 9 km/h 9 km/h 73 % 0 mm
11:34 -9.4 °C -12.1 °C 34740.4 hPa NE 9 km/h 9 km/h 73 % 0 mm
11:37 -9.3 °C -11.9 °C 34750.5 hPa NE 9 km/h 9 km/h 74 % 0 mm
11:39 -9.3 °C -11.7 °C 34750.5 hPa NE 10.3 km/h 10.3 km/h 75 % 0 mm
11:43 -9.2 °C -11.6 °C 34750.5 hPa NE 15 km/h 15 km/h 76 % 0 mm
11:44 -9.2 °C -11.5 °C 34750.5 hPa NE 15 km/h 15 km/h 76 % 0 mm
11:49 -9.1 °C -11.3 °C 34750.5 hPa NE 15.6 km/h 15.6 km/h 77 % 0 mm
11:54 -8.9 °C -11.3 °C 34750.5 hPa NNE 9 km/h 9 km/h 76 % 0 mm
11:59 -8.8 °C -11.2 °C 34750.5 hPa NNE 3.1 km/h 3.1 km/h 76 % 0 mm
12:04 -8.8 °C -11.1 °C 34750.5 hPa NNE 6 km/h 6 km/h 76 % 0 mm
12:05 -8.7 °C -11.1 °C 34750.5 hPa WSW 10.3 km/h 10.3 km/h 76 % 0 mm
12:10 -8.6 °C -10.8 °C 34740.4 hPa NE 18.2 km/h 18.2 km/h 77 % 0 mm
12:14 -8.5 °C -10.9 °C 34750.5 hPa West 12.9 km/h 12.9 km/h 76 % 0 mm
12:15 -8.5 °C -10.9 °C 34750.5 hPa West 5.1 km/h 28.5 km/h 76 % 0 mm
12:20 -8.4 °C -10.7 °C 34750.5 hPa WNW 20.9 km/h 20.9 km/h 77 % 0 mm
12:21 -8.4 °C -10.7 °C 34750.5 hPa West 20.9 km/h 20.9 km/h 77 % 0 mm
12:26 -8.4 °C -10.8 °C 34740.4 hPa WNW 15 km/h 15 km/h 76 % 0 mm
12:28 -8.4 °C -10.7 °C 34740.4 hPa West 15 km/h 15 km/h 76 % 0 mm
12:31 -8.3 °C -10.8 °C 34750.5 hPa WNW 11.9 km/h 11.9 km/h 75 % 0 mm
12:36 -8.2 °C -10.7 °C 34750.5 hPa WSW 17.9 km/h 17.9 km/h 75 % 0 mm
12:38 -8.2 °C -10.7 °C 34750.5 hPa West 15 km/h 15 km/h 74 % 0 mm
12:42 -8.2 °C -10.7 °C 34740.4 hPa WSW 32.8 km/h 32.8 km/h 74 % 0 mm
12:45 -8.2 °C -10.7 °C 34740.4 hPa WSW 41.7 km/h 41.7 km/h 75 % 0 mm
12:48 -8.2 °C -10.6 °C 34740.4 hPa West 29.8 km/h 29.8 km/h 76 % 0 mm
12:53 -8.3 °C -10.9 °C 34726.8 hPa WSW 41.7 km/h 41.7 km/h 74 % 0 mm
12:54 -8.3 °C -10.9 °C 34726.8 hPa WSW 41.7 km/h 41.7 km/h 74 % 0 mm
12:59 -8.2 °C -11.1 °C 34726.8 hPa WSW 41.7 km/h 41.7 km/h 72 % 0 mm
13:04 -8.1 °C -11.2 °C 34726.8 hPa West 47.6 km/h 47.6 km/h 70 % 0 mm
13:07 -8 °C -11.2 °C 34716.7 hPa WSW 50.7 km/h 50.7 km/h 69 % 0 mm
13:12 -8 °C -11.1 °C 34716.7 hPa SW 50.7 km/h 50.7 km/h 70 % 0 mm
13:13 -8 °C -11.1 °C 34716.7 hPa WSW 47.6 km/h 47.6 km/h 70 % 0 mm
13:14 -8 °C -11 °C 34716.7 hPa WSW 44.7 km/h 44.7 km/h 71 % 0 mm
13:19 -8.1 °C -11.1 °C 34716.7 hPa WSW 38.8 km/h 38.8 km/h 71 % 0 mm
13:20 -8.1 °C -11.2 °C 34716.7 hPa WSW 38.8 km/h 38.8 km/h 70 % 0 mm
13:25 -7.9 °C -11.5 °C 34716.7 hPa West 50.7 km/h 50.7 km/h 66 % 0 mm
13:30 -7.6 °C -11.6 °C 34716.7 hPa West 44.7 km/h 44.7 km/h 63 % 0 mm
13:31 -7.6 °C -11.6 °C 34703.1 hPa West 41.7 km/h 41.7 km/h 63 % 0 mm
13:33 -7.5 °C -11.5 °C 34716.7 hPa WSW 29.8 km/h 29.8 km/h 63 % 0 mm
13:37 -7.4 °C -11.8 °C 34703.1 hPa West 35.7 km/h 35.7 km/h 60 % 0 mm
13:39 -7.3 °C -11.8 °C 34703.1 hPa West 44.7 km/h 44.7 km/h 60 % 0 mm
13:43 -7.2 °C -11.8 °C 34703.1 hPa WNW 41.7 km/h 41.7 km/h 59 % 0 mm
13:45 -7.2 °C -11.8 °C 34703.1 hPa WNW 41.7 km/h 41.7 km/h 59 % 0 mm
13:50 -7.2 °C -11.8 °C 34703.1 hPa West 35.7 km/h 35.7 km/h 58 % 0 mm
13:55 -7.1 °C -12 °C 34703.1 hPa WNW 47.6 km/h 47.6 km/h 57 % 0 mm
13:56 -7.1 °C -12 °C 34703.1 hPa NW 41.7 km/h 41.7 km/h 57 % 0 mm
14:01 -7.1 °C -11.9 °C 34703.1 hPa NW 17.9 km/h 17.9 km/h 57 % 0 mm
14:02 -7.1 °C -11.9 °C 34703.1 hPa NW 17.9 km/h 17.9 km/h 57 % 0 mm
14:07 -7.1 °C -12.1 °C 34703.1 hPa WNW 41.7 km/h 41.7 km/h 56 % 0 mm
14:08 -7 °C -12 °C 34703.1 hPa West 29.8 km/h 29.8 km/h 56 % 0 mm
14:14 -7 °C -12.1 °C 34703.1 hPa West 41.7 km/h 41.7 km/h 55 % 0 mm
14:18 -7 °C -12.1 °C 34703.1 hPa West 41.4 km/h 41.4 km/h 55 % 0 mm
14:23 -7 °C -12.1 °C 34703.1 hPa West 47.6 km/h 47.6 km/h 55 % 0 mm
14:24 -7 °C -12.3 °C 34703.1 hPa West 47.6 km/h 47.6 km/h 54 % 0 mm
14:27 -7 °C -12.1 °C 34703.1 hPa West 50.7 km/h 50.7 km/h 55 % 0 mm
14:30 -7 °C -12.1 °C 34716.7 hPa West 38.8 km/h 38.8 km/h 55 % 0 mm
14:35 -7 °C -12.3 °C 34703.1 hPa WNW 26.9 km/h 26.9 km/h 54 % 0 mm
14:38 -7 °C -12.3 °C 34703.1 hPa WNW 29.8 km/h 29.8 km/h 54 % 0 mm
14:40 -6.9 °C -12.3 °C 34703.1 hPa West 35.7 km/h 35.7 km/h 54 % 0 mm
14:45 -7 °C -12.1 °C 34716.7 hPa West 31.1 km/h 31.1 km/h 55 % 0 mm
14:50 -7 °C -12.2 °C 34703.1 hPa West 18.2 km/h 18.2 km/h 55 % 0 mm
14:55 -7 °C -12.1 °C 34703.1 hPa West 32.8 km/h 32.8 km/h 55 % 0 mm
14:56 -7 °C -12.1 °C 34703.1 hPa WNW 32.8 km/h 32.8 km/h 55 % 0 mm
15:01 -7 °C -12.2 °C 34703.1 hPa WNW 29.8 km/h 29.8 km/h 55 % 0 mm
15:07 -7 °C -12.2 °C 34703.1 hPa West 23.8 km/h 23.8 km/h 55 % 0 mm
15:11 -7 °C -12 °C 34716.7 hPa West 18.2 km/h 18.2 km/h 56 % 0 mm
15:12 -7 °C -12 °C 34716.7 hPa West 23.3 km/h 23.3 km/h 56 % 0 mm
15:17 -7.1 °C -11.9 °C 34716.7 hPa WSW 20.9 km/h 20.9 km/h 57 % 0 mm
15:21 -7.2 °C -11.6 °C 34716.7 hPa West 29.8 km/h 29.8 km/h 60 % 0 mm
15:22 -7.2 °C -11.6 °C 34716.7 hPa WSW 29.8 km/h 29.8 km/h 60 % 0 mm
15:27 -7.3 °C -11.7 °C 34703.1 hPa WSW 26.9 km/h 26.9 km/h 60 % 0 mm
15:29 -7.3 °C -11.6 °C 34703.1 hPa West 26.9 km/h 26.9 km/h 61 % 0 mm
15:34 -7.3 °C -11.9 °C 34703.1 hPa WNW 10.3 km/h 10.9 km/h 59 % 0 mm
15:35 -7.3 °C -12 °C 34703.1 hPa WNW 17.9 km/h 17.9 km/h 58 % 0 mm
15:40 -7.2 °C -12.1 °C 34703.1 hPa WNW 20.9 km/h 20.9 km/h 57 % 0 mm
15:41 -7.2 °C -12.1 °C 34703.1 hPa WNW 20.9 km/h 20.9 km/h 57 % 0 mm
15:42 -7.1 °C -12.1 °C 34703.1 hPa WNW 20.9 km/h 20.9 km/h 56 % 0 mm
15:47 -7.1 °C -12.2 °C 34703.1 hPa NW 20.9 km/h 20.9 km/h 55 % 0 mm
15:49 -7 °C -12.2 °C 34703.1 hPa NW 23.8 km/h 23.8 km/h 55 % 0 mm
15:50 -7 °C -12.2 °C 34703.1 hPa WNW 23.8 km/h 23.8 km/h 55 % 0 mm
15:55 -6.9 °C -12.1 °C 34703.1 hPa West 23.8 km/h 23.8 km/h 55 % 0 mm
15:56 -6.9 °C -12.1 °C 34703.1 hPa West 23.8 km/h 23.8 km/h 55 % 0 mm
16:00 -6.9 °C -11.9 °C 34703.1 hPa West 26.9 km/h 26.9 km/h 56 % 0 mm
16:01 -6.9 °C -11.9 °C 34703.1 hPa West 26.9 km/h 26.9 km/h 56 % 0 mm
16:02 -6.9 °C -11.9 °C 34703.1 hPa WNW 20.9 km/h 20.9 km/h 56 % 0 mm
16:07 -7 °C -12 °C 34703.1 hPa West 18.2 km/h 18.2 km/h 56 % 0 mm
16:08 -7 °C -12 °C 34716.7 hPa West 20.8 km/h 20.8 km/h 56 % 0 mm
16:09 -7 °C -12 °C 34716.7 hPa WNW 23.8 km/h 23.8 km/h 56 % 0 mm
16:13 -7 °C -12 °C 34716.7 hPa NW 20.8 km/h 20.8 km/h 56 % 0 mm
16:18 -7 °C -12.1 °C 34716.7 hPa West 32.8 km/h 32.8 km/h 55 % 0 mm
16:20 -7 °C -12.1 °C 34716.7 hPa West 31.1 km/h 31.1 km/h 55 % 0 mm
16:24 -6.9 °C -11.9 °C 34716.7 hPa West 38.8 km/h 38.8 km/h 56 % 0 mm
16:26 -6.9 °C -12.1 °C 34716.7 hPa WNW 38.8 km/h 38.8 km/h 55 % 0 mm
16:29 -6.9 °C -11.9 °C 34716.7 hPa West 32.8 km/h 32.8 km/h 56 % 0 mm
16:34 -6.8 °C -11.8 °C 34716.7 hPa West 47.6 km/h 47.6 km/h 56 % 0 mm
16:39 -6.8 °C -11.7 °C 34716.7 hPa West 35.7 km/h 35.7 km/h 57 % 0 mm
16:40 -6.8 °C -11.7 °C 34716.7 hPa WNW 35.7 km/h 35.7 km/h 57 % 0 mm
16:45 -6.8 °C -11.7 °C 34716.7 hPa West 35.7 km/h 35.7 km/h 57 % 0 mm
16:50 -6.9 °C -11.6 °C 34726.8 hPa West 36.2 km/h 36.2 km/h 58 % 0 mm
16:53 -7 °C -11.7 °C 34716.7 hPa WSW 47.6 km/h 47.6 km/h 58 % 0 mm
16:58 -7.1 °C -11.6 °C 34716.7 hPa West 44.7 km/h 44.7 km/h 59 % 0 mm
16:59 -7.1 °C -11.6 °C 34716.7 hPa West 44.7 km/h 44.7 km/h 59 % 0 mm
17:01 -7.1 °C -11.7 °C 34716.7 hPa West 44.7 km/h 44.7 km/h 59 % 0 mm
17:06 -7.2 °C -11.6 °C 34716.7 hPa West 50.7 km/h 50.7 km/h 60 % 0 mm
17:07 -7.2 °C -11.6 °C 34716.7 hPa West 38.8 km/h 38.8 km/h 60 % 0 mm
17:12 -7.2 °C -11.6 °C 34716.7 hPa West 50.7 km/h 50.7 km/h 60 % 0 mm
17:13 -7.2 °C -11.6 °C 34716.7 hPa WNW 50.7 km/h 50.7 km/h 60 % 0 mm
17:14 -7.2 °C -11.6 °C 34716.7 hPa West 44.7 km/h 44.7 km/h 60 % 0 mm
17:19 -7.3 °C -11.5 °C 34703.1 hPa West 32.8 km/h 32.8 km/h 61 % 0 mm
17:24 -7.3 °C -11.6 °C 34716.7 hPa WNW 47.6 km/h 47.6 km/h 61 % 0 mm
17:25 -7.3 °C -11.6 °C 34716.7 hPa WNW 47.6 km/h 47.6 km/h 61 % 0 mm
17:30 -7.3 °C -11.7 °C 34716.7 hPa West 50.7 km/h 50.7 km/h 60 % 0 mm
17:31 -7.3 °C -11.7 °C 34716.7 hPa West 50.7 km/h 50.7 km/h 60 % 0 mm
17:36 -7.3 °C -11.7 °C 34716.7 hPa West 44.7 km/h 44.7 km/h 60 % 0 mm
17:41 -7.3 °C -11.7 °C 34726.8 hPa West 41.7 km/h 41.7 km/h 60 % 0 mm
17:42 -7.3 °C -11.7 °C 34726.8 hPa West 41.7 km/h 41.7 km/h 60 % 0 mm
17:44 -7.3 °C -11.8 °C 34726.8 hPa West 41.7 km/h 41.7 km/h 60 % 0 mm
17:47 -7.3 °C -11.9 °C 34726.8 hPa WNW 50.7 km/h 50.7 km/h 59 % 0 mm
17:52 -7.3 °C -11.7 °C 34726.8 hPa West 32.8 km/h 32.8 km/h 60 % 0 mm
17:57 -7.3 °C -11.9 °C 34740.4 hPa West 44.7 km/h 44.7 km/h 59 % 0 mm
17:58 -7.3 °C -11.9 °C 34740.4 hPa West 44.7 km/h 44.7 km/h 59 % 0 mm
18:03 -7.3 °C -11.8 °C 34726.8 hPa WSW 38.8 km/h 38.8 km/h 60 % 0 mm
18:04 -7.3 °C -11.8 °C 34740.4 hPa West 38.8 km/h 38.8 km/h 60 % 0 mm
18:09 -7.4 °C -11.8 °C 34740.4 hPa West 44.7 km/h 44.7 km/h 60 % 0 mm
18:10 -7.4 °C -11.8 °C 34740.4 hPa West 41.4 km/h 41.4 km/h 60 % 0 mm
18:14 -7.4 °C -11.8 °C 34740.4 hPa West 49.2 km/h 49.2 km/h 60 % 0 mm
18:16 -7.4 °C -11.8 °C 34740.4 hPa West 50.7 km/h 50.7 km/h 60 % 0 mm
18:21 -7.4 °C -11.7 °C 34740.4 hPa West 41.4 km/h 41.4 km/h 61 % 0 mm
18:24 -7.6 °C -11.8 °C 34740.4 hPa West 38.8 km/h 38.8 km/h 61 % 0 mm
18:27 -7.6 °C -11.8 °C 34740.4 hPa West 49.2 km/h 49.2 km/h 61 % 0 mm
18:29 -7.6 °C -11.7 °C 34750.5 hPa WSW 50.7 km/h 50.7 km/h 62 % 0 mm
18:34 -7.6 °C -11.7 °C 34750.5 hPa West 44.7 km/h 44.7 km/h 62 % 0 mm
18:37 -7.6 °C -11.7 °C 34750.5 hPa West 33.6 km/h 33.6 km/h 62 % 0 mm
18:42 -7.6 °C -11.7 °C 34750.5 hPa West 41.7 km/h 41.7 km/h 62 % 0 mm
18:43 -7.7 °C -11.8 °C 34750.5 hPa WSW 44.7 km/h 44.7 km/h 62 % 0 mm
18:48 -7.7 °C -11.8 °C 34750.5 hPa WSW 47.6 km/h 47.6 km/h 62 % 0 mm
18:51 -7.7 °C -11.8 °C 34760.7 hPa West 47.6 km/h 47.6 km/h 62 % 0 mm
18:53 -7.7 °C -11.7 °C 34760.7 hPa West 47.6 km/h 47.6 km/h 63 % 0 mm
18:58 -7.7 °C -11.7 °C 34760.7 hPa West 29.8 km/h 29.8 km/h 63 % 0 mm
18:59 -7.7 °C -11.7 °C 34760.7 hPa WNW 29.8 km/h 29.8 km/h 63 % 0 mm
19:04 -7.8 °C -11.6 °C 34760.7 hPa WSW 47.6 km/h 47.6 km/h 64 % 0 mm
19:05 -7.8 °C -11.5 °C 34760.7 hPa WSW 44.7 km/h 44.7 km/h 65 % 0 mm
19:07 -7.8 °C -11.5 °C 34760.7 hPa WSW 50.7 km/h 50.7 km/h 65 % 0 mm
19:12 -7.8 °C -11.4 °C 34774.2 hPa WSW 50.7 km/h 50.7 km/h 66 % 0 mm
19:16 -7.8 °C -11.4 °C 34774.2 hPa WSW 33.6 km/h 33.6 km/h 66 % 0 mm
19:18 -7.8 °C -11.4 °C 34774.2 hPa WSW 38.8 km/h 38.8 km/h 66 % 0 mm
19:22 -7.9 °C -11.4 °C 34784.4 hPa SW 41.4 km/h 41.4 km/h 66 % 0 mm
19:24 -7.9 °C -11.3 °C 34784.4 hPa West 53.6 km/h 53.6 km/h 67 % 0 mm
19:30 -7.9 °C -11.3 °C 34784.4 hPa West 53.6 km/h 53.6 km/h 68 % 0 mm
19:33 -7.9 °C -11.2 °C 34784.4 hPa WSW 50.7 km/h 50.7 km/h 69 % 0 mm
19:37 -8 °C -11.2 °C 34784.4 hPa West 50.7 km/h 50.7 km/h 69 % 0 mm
19:42 -8 °C -11.1 °C 34797.9 hPa WSW 47.6 km/h 47.6 km/h 70 % 0 mm
19:44 -8 °C -11.1 °C 34797.9 hPa WSW 50.7 km/h 50.7 km/h 70 % 0 mm
19:48 -8.1 °C -11.2 °C 34797.9 hPa WSW 44.7 km/h 44.7 km/h 70 % 0 mm
19:51 -8.1 °C -11.1 °C 34797.9 hPa WSW 56.6 km/h 56.6 km/h 71 % 0 mm
19:54 -8.1 °C -11.1 °C 34808.1 hPa WSW 50.7 km/h 50.7 km/h 71 % 0 mm
19:56 -8.1 °C -11.1 °C 34808.1 hPa WSW 50.7 km/h 50.7 km/h 71 % 0 mm
20:00 -8.2 °C -11.1 °C 34797.9 hPa West 53.6 km/h 53.6 km/h 72 % 0 mm
20:04 -8.2 °C -11.1 °C 34808.1 hPa WSW 38.8 km/h 38.8 km/h 72 % 0 mm
20:06 -8.2 °C -10.9 °C 34808.1 hPa West 41.7 km/h 41.7 km/h 73 % 0 mm
20:10 -8.3 °C -11 °C 34808.1 hPa West 44.7 km/h 44.7 km/h 73 % 0 mm
20:15 -8.3 °C -10.9 °C 34808.1 hPa WSW 46.7 km/h 46.7 km/h 74 % 0 mm
20:17 -8.2 °C -10.8 °C 34808.1 hPa West 50.7 km/h 50.7 km/h 74 % 0 mm
20:22 -8.2 °C -10.8 °C 34818.2 hPa WSW 50.7 km/h 50.7 km/h 74 % 0 mm
20:23 -8.2 °C -10.9 °C 34818.2 hPa WSW 50.7 km/h 50.7 km/h 73 % 0 mm
20:28 -8.2 °C -10.9 °C 34818.2 hPa West 31.1 km/h 31.1 km/h 73 % 0 mm
20:29 -8.2 °C -10.9 °C 34831.8 hPa West 26.9 km/h 26.9 km/h 73 % 0 mm
20:34 -8.2 °C -10.9 °C 34831.8 hPa West 32.8 km/h 32.8 km/h 73 % 0 mm
20:36 -8.2 °C -10.9 °C 34831.8 hPa West 32.8 km/h 32.8 km/h 73 % 0 mm
20:41 -8.2 °C -10.9 °C 34831.8 hPa West 38.8 km/h 38.8 km/h 73 % 0 mm
20:43 -8.2 °C -10.9 °C 34831.8 hPa WSW 38.8 km/h 38.8 km/h 73 % 0 mm
20:48 -8.1 °C -10.8 °C 34831.8 hPa West 38.8 km/h 38.8 km/h 73 % 0 mm
20:53 -8.1 °C -10.8 °C 34831.8 hPa WSW 29.8 km/h 29.8 km/h 73 % 0 mm
20:54 -8.1 °C -10.8 °C 34831.8 hPa West 26.9 km/h 26.9 km/h 73 % 0 mm
20:59 -8.1 °C -10.9 °C 34831.8 hPa WSW 38.8 km/h 38.8 km/h 72 % 0 mm
21:03 -8.1 °C -10.9 °C 34831.8 hPa WSW 38.8 km/h 38.8 km/h 72 % 0 mm
21:04 -8.1 °C -11.1 °C 34831.8 hPa West 32.8 km/h 32.8 km/h 71 % 0 mm
21:09 -8.1 °C -10.9 °C 34831.8 hPa WSW 44.7 km/h 44.7 km/h 72 % 0 mm
21:10 -8.1 °C -10.9 °C 34831.8 hPa SW 44.7 km/h 44.7 km/h 72 % 0 mm
21:14 -8.1 °C -10.9 °C 34831.8 hPa West 35.7 km/h 35.7 km/h 72 % 0 mm
21:15 -8.1 °C -10.9 °C 34831.8 hPa WSW 32.8 km/h 32.8 km/h 72 % 0 mm
21:20 -8.1 °C -10.9 °C 34841.9 hPa WSW 31.1 km/h 31.1 km/h 72 % 0 mm
21:21 -8.1 °C -10.9 °C 34841.9 hPa WSW 36.2 km/h 36.2 km/h 72 % 0 mm
21:26 -8.2 °C -11 °C 34841.9 hPa WSW 29.8 km/h 29.8 km/h 72 % 0 mm
21:28 -8.2 °C -11 °C 34841.9 hPa WSW 29.8 km/h 29.8 km/h 72 % 0 mm
21:33 -8.2 °C -11.1 °C 34852.1 hPa West 29.8 km/h 29.8 km/h 71 % 0 mm
21:38 -8.2 °C -11.1 °C 34852.1 hPa West 38.8 km/h 38.8 km/h 71 % 0 mm
21:40 -8.2 °C -11.1 °C 34852.1 hPa WSW 38.8 km/h 38.8 km/h 71 % 0 mm
21:45 -8.1 °C -11.2 °C 34852.1 hPa WSW 35.7 km/h 35.7 km/h 70 % 0 mm
21:50 -8.1 °C -11.2 °C 34852.1 hPa WSW 35.7 km/h 35.7 km/h 70 % 0 mm
21:51 -8.1 °C -11.2 °C 34852.1 hPa WSW 35.7 km/h 35.7 km/h 70 % 0 mm
21:56 -8.1 °C -11.2 °C 34852.1 hPa West 28.5 km/h 28.5 km/h 70 % 0 mm
21:57 -8.1 °C -11.2 °C 34852.1 hPa West 33.6 km/h 33.6 km/h 70 % 0 mm
22:02 -8.1 °C -11.2 °C 34865.6 hPa WSW 29.8 km/h 29.8 km/h 70 % 0 mm
22:03 -8.1 °C -11.2 °C 34865.6 hPa West 33.6 km/h 33.6 km/h 70 % 0 mm
22:08 -8.1 °C -11.1 °C 34865.6 hPa West 32.8 km/h 32.8 km/h 71 % 0 mm
22:13 -8.2 °C -11.1 °C 34865.6 hPa WSW 32.8 km/h 32.8 km/h 71 % 0 mm
22:14 -8.2 °C -11.1 °C 34865.6 hPa WSW 32.8 km/h 32.8 km/h 71 % 0 mm
22:18 -8.2 °C -11.1 °C 34875.8 hPa West 26.9 km/h 26.9 km/h 71 % 0 mm
22:19 -8.2 °C -11 °C 34875.8 hPa WSW 20.9 km/h 20.9 km/h 72 % 0 mm
22:24 -8.2 °C -11.2 °C 34875.8 hPa West 23.8 km/h 23.8 km/h 71 % 0 mm
22:26 -8.2 °C -11.2 °C 34875.8 hPa West 23.8 km/h 23.8 km/h 71 % 0 mm
22:28 -8.2 °C -11.2 °C 34875.8 hPa NW 15 km/h 15 km/h 70 % 0 mm
22:33 -8.1 °C -11.3 °C 34865.6 hPa NNW 17.9 km/h 17.9 km/h 69 % 0 mm
22:38 -8.1 °C -11.3 °C 34865.6 hPa WNW 6 km/h 6 km/h 69 % 0 mm
22:39 -8.1 °C -11.3 °C 34875.8 hPa West 9 km/h 9 km/h 69 % 0 mm
22:44 -8.1 °C -11.3 °C 34875.8 hPa NW 11.9 km/h 11.9 km/h 69 % 0 mm
22:45 -8.1 °C -11.4 °C 34875.8 hPa NNW 15.6 km/h 15.6 km/h 68 % 0 mm
22:46 -8.1 °C -11.4 °C 34875.8 hPa NNW 15 km/h 15 km/h 68 % 0 mm
22:51 -8 °C -11.3 °C 34875.8 hPa West 11.9 km/h 11.9 km/h 68 % 0 mm
22:52 -8 °C -11.3 °C 34875.8 hPa West 11.9 km/h 11.9 km/h 68 % 0 mm
22:57 -8 °C -11.4 °C 34875.8 hPa WSW 20.9 km/h 20.9 km/h 67 % 0 mm
23:02 -8 °C -11.4 °C 34889.3 hPa NW 9 km/h 9 km/h 67 % 0 mm
23:04 -7.9 °C -11.4 °C 34889.3 hPa WSW 15 km/h 15 km/h 67 % 0 mm
23:09 -7.9 °C -11.4 °C 34889.3 hPa West 17.9 km/h 17.9 km/h 67 % 0 mm
23:10 -7.9 °C -11.4 °C 34889.3 hPa WSW 12.9 km/h 18.2 km/h 67 % 0 mm
23:15 -7.9 °C -11.6 °C 34889.3 hPa WSW 15.6 km/h 15.6 km/h 66 % 0 mm
23:20 -7.9 °C -11.4 °C 34889.3 hPa West 15 km/h 15 km/h 67 % 0 mm
23:21 -7.9 °C -11.4 °C 34889.3 hPa West 18.2 km/h 18.2 km/h 67 % 0 mm
23:22 -7.9 °C -11.4 °C 34889.3 hPa WSW 23.8 km/h 23.8 km/h 67 % 0 mm
23:27 -7.9 °C -11.5 °C 34889.3 hPa West 15 km/h 15 km/h 66 % 0 mm
23:32 -7.9 °C -11.4 °C 34889.3 hPa West 15 km/h 15 km/h 67 % 0 mm
23:34 -7.9 °C -11.4 °C 34889.3 hPa West 15 km/h 15 km/h 67 % 0 mm
23:39 -8 °C -11.7 °C 34889.3 hPa NW 15 km/h 15 km/h 65 % 0 mm
23:40 -8 °C -11.8 °C 34889.3 hPa WNW 15 km/h 15 km/h 64 % 0 mm
23:45 -7.9 °C -12.1 °C 34889.3 hPa WNW 15 km/h 15 km/h 62 % 0 mm
23:50 -7.9 °C -11.9 °C 34889.3 hPa NW 11.9 km/h 11.9 km/h 63 % 0 mm
23:51 -7.9 °C -11.9 °C 34889.3 hPa NW 11.9 km/h 11.9 km/h 63 % 0 mm
23:53 -7.9 °C -11.9 °C 34889.3 hPa West 18.2 km/h 18.2 km/h 63 % 0 mm
23:57 -7.9 °C -12.1 °C 34899.5 hPa West 15 km/h 15 km/h 62 % 0 mm
Puerto Banus, Marbella
Elogios de Weather Underground - 2.5 mb

Guión original por  Jim McMurry - jmcmurry@mwt.net Adaptado para la plantilla por  Wim van der Kuil - Leuven-Template.eu

Usted encontrará nuestra información del tiempo también en:

Weather Underground

Iberian Peninsula Weather Network